ver_0001

Directory: simulation modeling
Plat: matlab
Size: 3980KB
Downloads: 8
Upload time: 2019-11-08 13:06:07
Uploader: 米尔1
Description:   The precursor EV simulation model built by AVL cruise can be used as a reference for beginners.

File list:
ver_0001\cruise.ini, 2554 , 2019-11-08
ver_0001\drivers\nil.drv, 11753 , 2017-03-08
ver_0001\drivers\Standard.drv, 12573 , 2017-03-08
ver_0001\drivers\Standard_1.drv, 12574 , 2017-03-08
ver_0001\drivers\Standard_2.drv, 12567 , 2017-03-08
ver_0001\drivers\Standard_3.drv, 12574 , 2017-03-08
ver_0001\EV-CVT.bch, 230 , 2019-11-08
ver_0001\EV-CVT.ccv, 377 , 2019-11-08
ver_0001\EV-CVT.dbf, 179760 , 2019-11-08
ver_0001\EV-CVT.efm, 97187 , 2019-11-08
ver_0001\EV-CVT.extfe.map, 148 , 2019-11-08
ver_0001\EV-CVT.gif, 88884 , 2019-11-08
ver_0001\EV-CVT.info, 92428 , 2019-11-08
ver_0001\EV-CVT.lay, 30242 , 2019-11-08
ver_0001\EV-CVT.map, 128 , 2019-11-08
ver_0001\EV-CVT.mdl, 437 , 2019-11-08
ver_0001\EV-CVT.Online Parameter Access.map, 149 , 2019-11-08
ver_0001\EV-CVT.prj, 13061 , 2019-11-08
ver_0001\EV-CVT.set, 259 , 2019-11-08
ver_0001\EV-CVT.stc, 8356 , 2019-11-08
ver_0001\EV-CVT.udm, 202 , 2019-11-08
ver_0001\EV-CVT.uil, 16058 , 2019-11-08
ver_0001\folder.001\info, 76 , 2019-11-08
ver_0001\folder.001\SAM_Folder.tsk, 1681 , 2019-11-08
ver_0001\folder.001\task.001\info, 1765 , 2017-03-08
ver_0001\folder.002\Driving_Cycles.tsk, 8652 , 2019-11-08
ver_0001\folder.002\info, 80 , 2019-11-08
ver_0001\folder.002\task.001\c192__22.b_1, 73750 , 2019-11-08
ver_0001\folder.002\task.001\Current.efd, 97160 , 2019-11-08
ver_0001\folder.002\task.001\c_50__50.b_1, 178795 , 2019-11-08
ver_0001\folder.002\task.001\c_51__51.b_1, 105204 , 2019-11-08
ver_0001\folder.002\task.001\c_60__14.b_1, 325990 , 2019-11-08
ver_0001\folder.002\task.001\c_68__15.b_1, 94708 , 2019-11-08
ver_0001\folder.002\task.001\c_71__16.b_1, 126293 , 2019-11-08
ver_0001\folder.002\task.001\c_73__17.b_1, 105122 , 2019-11-08
ver_0001\folder.002\task.001\c_75__18.b_1, 241896 , 2019-11-08
ver_0001\folder.002\task.001\c_95__19.b_1, 84244 , 2019-11-08
ver_0001\folder.002\task.001\c_95__20.b_1, 84214 , 2019-11-08
ver_0001\folder.002\task.001\c_99__21.b_1, 42133 , 2019-11-08
ver_0001\folder.002\task.001\Energy.efd, 1277062 , 2019-11-08
ver_0001\folder.002\task.001\info, 1912 , 2019-11-08
ver_0001\folder.002\task.001\m_11___3.b_1, 105210 , 2019-11-08
ver_0001\folder.002\task.001\m_14___4.b_1, 115719 , 2019-11-08
ver_0001\folder.002\task.001\m_14___5.b_1, 115719 , 2019-11-08
ver_0001\folder.002\task.001\m_14___6.b_1, 115719 , 2019-11-08
ver_0001\folder.002\task.001\m_14___7.b_1, 115719 , 2019-11-08
ver_0001\folder.002\task.001\m_15__10.b_1, 63134 , 2019-11-08
ver_0001\folder.002\task.001\m_15__11.b_1, 63134 , 2019-11-08
ver_0001\folder.002\task.001\m_15___8.b_1, 63134 , 2019-11-08
ver_0001\folder.002\task.001\m_15___9.b_1, 63134 , 2019-11-08
ver_0001\folder.002\task.001\m_19__12.b_1, 231364 , 2019-11-08
ver_0001\folder.002\task.001\m_24__13.b_1, 157802 , 2019-11-08
ver_0001\folder.002\task.001\m__1___1.b_1, 241900 , 2019-11-08
ver_0001\folder.002\task.001\m__9___2.b_1, 126250 , 2019-11-08
ver_0001\folder.002\task.001\Power.efd, 1277055 , 2019-11-08
ver_0001\folder.002\task.001\Speed - Velocity.efd, 427550 , 2019-11-08
ver_0001\folder.002\task.001\Torque - Force.efd, 215161 , 2019-11-08
ver_0001\folder.002\task.001\t__1___1.b_1, 315767 , 2019-11-08
ver_0001\folder.002\task.001\Voltage.efd, 97163 , 2019-11-08
ver_0001\folder.002\task.001\_x_axis_.gid, 49941 , 2019-11-08
ver_0001\folder.002\task.002\info, 1771 , 2017-03-08
ver_0001\folder.003\Full_load_driving.tsk, 16231 , 2019-11-08
ver_0001\folder.003\info, 83 , 2019-11-08
ver_0001\folder.003\task.001\c192__22.b_1, 76301 , 2019-11-08
ver_0001\folder.003\task.001\Current.efd, 100564 , 2019-11-08
ver_0001\folder.003\task.001\c_50__50.b_1, 185026 , 2019-11-08
ver_0001\folder.003\task.001\c_51__51.b_1, 108859 , 2019-11-08
ver_0001\folder.003\task.001\c_60__14.b_1, 337373 , 2019-11-08
ver_0001\folder.003\task.001\c_68__15.b_1, 97995 , 2019-11-08
ver_0001\folder.003\task.001\c_71__16.b_1, 130684 , 2019-11-08
ver_0001\folder.003\task.001\c_73__17.b_1, 108777 , 2019-11-08
ver_0001\folder.003\task.001\c_75__18.b_1, 250335 , 2019-11-08
ver_0001\folder.003\task.001\c_95__19.b_1, 87163 , 2019-11-08
ver_0001\folder.003\task.001\c_95__20.b_1, 87133 , 2019-11-08
ver_0001\folder.003\task.001\c_99__21.b_1, 43580 , 2019-11-08
ver_0001\folder.003\task.001\Energy.efd, 1321866 , 2019-11-08
ver_0001\folder.003\task.001\info, 1952 , 2019-11-08
ver_0001\folder.003\task.001\m_11___3.b_1, 108865 , 2019-11-08
ver_0001\folder.003\task.001\m_14___4.b_1, 119742 , 2019-11-08
ver_0001\folder.003\task.001\m_14___5.b_1, 119742 , 2019-11-08
ver_0001\folder.003\task.001\m_14___6.b_1, 119742 , 2019-11-08
ver_0001\folder.003\task.001\m_14___7.b_1, 119742 , 2019-11-08
ver_0001\folder.003\task.001\m_15__10.b_1, 65317 , 2019-11-08
ver_0001\folder.003\task.001\m_15__11.b_1, 65317 , 2019-11-08
ver_0001\folder.003\task.001\m_15___8.b_1, 65317 , 2019-11-08
ver_0001\folder.003\task.001\m_15___9.b_1, 65317 , 2019-11-08
ver_0001\folder.003\task.001\m_19__12.b_1, 239435 , 2019-11-08
ver_0001\folder.003\task.001\m_24__13.b_1, 163297 , 2019-11-08
ver_0001\folder.003\task.001\m__1___1.b_1, 250339 , 2019-11-08
ver_0001\folder.003\task.001\m__9___2.b_1, 130641 , 2019-11-08
ver_0001\folder.003\task.001\Power.efd, 1321859 , 2019-11-08
ver_0001\folder.003\task.001\Speed - Velocity.efd, 442546 , 2019-11-08
ver_0001\folder.003\task.001\Torque - Force.efd, 222705 , 2019-11-08
ver_0001\folder.003\task.001\t__4___1.b_1, 87073 , 2019-11-08
ver_0001\folder.003\task.001\Voltage.efd, 100567 , 2019-11-08
ver_0001\folder.003\task.001\_x_axis_.gid, 51671 , 2019-11-08
ver_0001\folder.003\task.002\c192__22.b_1, 5405 , 2019-11-08
ver_0001\folder.003\task.002\Current.efd, 6880 , 2019-11-08
ver_0001\folder.003\task.002\c_50__50.b_1, 12850 , 2019-11-08
ver_0001\folder.003\task.002\c_51__51.b_1, 7579 , 2019-11-08

Download users:

Relate files:

Comment: Add Comment

Favorite users: